Location: Angwan Shehu
(11.2514°N, 7.4613°E)
Time: 09:05:11
(UTC+00:00)

N. Korean satellite - Visible Passes

Search period start: 06 March 2021 00:00
Search period end: 16 March 2021 00:00
Orbit: 451 x 502 km, 97.2° (Epoch: 05 March)

Date Brightness Start Highest point End Pass type
(mag) Time Alt. Az. Time Alt. Az. Time Alt. Az.
06 Mar 8.4 04:14:16 10° NE 04:17:33 33° E 04:20:53 10° SSE visible
07 Mar 9.9 03:49:09 10° ENE 03:50:50 13° E 03:52:30 10° SE visible
07 Mar 8.1 05:21:24 10° NNW 05:23:53 18° WNW 05:26:23 10° WSW visible
08 Mar 6.8 04:53:43 10° N 04:57:12 47° WNW 05:00:45 10° SSW visible
09 Mar 7.3 04:26:56 10° NNE 04:30:30 56° E 04:34:07 10° S visible
10 Mar 9.3 04:01:00 10° NE 04:03:46 20° E 04:06:33 10° SSE visible
11 Mar 7.5 05:06:55 10° NNW 05:10:06 29° WNW 05:13:18 10° SW visible
12 Mar 6.5 04:39:44 10° N 04:43:23 84° WNW 04:47:04 10° SSW visible
13 Mar 8.4 04:13:20 10° NE 04:16:39 32° E 04:19:58 10° SSE visible
14 Mar 9.9 03:48:12 10° ENE 03:49:52 13° E 03:51:31 10° SE visible
15 Mar 6.8 04:52:40 10° N 04:56:13 49° WNW 04:59:47 10° SSW visible
